Regional Weather Roundup
Issued by NWS

Home | Current Version | Previous Version | Text Only | Print | Product List | Glossary On
Versions: 1 2 3 4 5 6 7 8 9 10 11 12 13 14 15 16 17 18 19 20 21 22 23 24 25 26 27 28 29 30 31 32 33 34 35 36 37 38 39 40 41 42 43 44 45 46 47 48 49 50
422
ASUS46 KSTO 280309
RWRCA

NORTHERN AND CENTRAL CA REGIONAL WEATHER ROUNDUP
NATIONAL WEATHER SERVICE SACRAMENTO CA
800 PM PDT WED JUL 27 2016

NOTE: FAIR INDICATES FEW OR NO CLOUDS BELOW 12,000 FEET WITH NO
SIGNIFICANT WEATHER AND/OR OBSTRUCTIONS TO VISIBILITY.

CAZ001-003-280400-
NORTHWEST AREA

CITY           SKY/WX    TMP DP  RH WIND       PRES   REMARKS
CRESCENT CITY  CLEAR     59  53  80 S12       29.91R
ARCATA         NOT AVBL
SHELTER COVE   NOT AVBL
UKIAH          CLEAR     93  47  20 N6        29.84R
$$

CAZ006-505>513-280400-
BAY AREA

CITY           SKY/WX    TMP DP  RH WIND       PRES   REMARKS
SANTA ROSA     CLEAR     64  51  62 S9        29.86R
SAN RAFAEL     N/A       84  MM  MM MISG
NAPA           CLEAR     67  57  70 S12       29.86R
CONCORD        CLEAR     88  45  22 SW8       29.83R
OAKLAND CITY   N/A       64  MM  MM MISG
OAKLAND        MOCLDY    62  55  77 W20       29.89R
SAN FRAN CITY  N/A       55  MM  85 MISG
SAN FRAN ARPT  PTCLDY    57  51  80 W22       29.88R
LIVERMORE      CLEAR     88  43  20 NW12      29.84R
HAYWARD        CLEAR     69  52  54 NW7       29.87R
REDWOOD CITY   N/A       MM  MM  MM MISG
MOFFETT ARPT   CLEAR     68  59  73 NW12      29.88R
SAN JOSE ARPT  MOCLDY    73  57  57 NW12      29.87R
$$
CAZ034-037-514>518-280400-
CENTRAL COAST

CITY           SKY/WX    TMP DP  RH WIND       PRES   REMARKS
WATSONVILLE    CLEAR     56  53  90 S5        29.93R
SALINAS        PTCLDY    58  53  84 W14       29.91S
MONTEREY       CLOUDY    56  54  93 VRB5      29.93S FOG
PT PIEDRAS BLS NOT AVBL
SAN LUIS OBISP CLEAR     65  54  67 NW8       29.91R
SANTA MARIA    CLEAR     60  55  83 W7        29.93R
$$
CAZ015-016-280400-
NORTHERN SACRAMENTO VALLEY

CITY           SKY/WX    TMP DP  RH WIND       PRES   REMARKS
REDDING        CLEAR    101  46  15 S8        29.78R HX  97
RED BLUFF      CLEAR    100  48  17 S7        29.78R HX  96
OROVILLE       CLEAR     98  53  22 S5        29.78S HX  96
$$
CAZ016>018-280400-
SOUTHERN SACRAMENTO VALLEY

CITY           SKY/WX    TMP DP  RH WIND       PRES   REMARKS
BEALE AFB      CLEAR     94  54  26 S6        29.76R HX  92
LINCOLN        FAIR      95  45  17 SW5       29.77S HX  91
MARYSVILLE     CLEAR     97  60  29 S7        29.76S HX  97
SAC INTL ARPT  PTCLDY    92  58  31 S12       29.77R HX  91
MATHER AIRPORT PTCLDY    95  52  23 SW9       29.79R HX  92
DOWNTOWN SAC   N/A       93  MM  MM MISG
SAC EXEC ARPT  CLEAR     89  54  30 SW7G17    29.78R
VACAVILLE      CLEAR     97  46  17 SW5       29.79R HX  93
TRAVIS AFB     CLEAR     82  54  38 SW16      29.77R
$$
CAZ019>021-280400-
SAN JOAQUIN VALLEY

CITY           SKY/WX    TMP DP  RH WIND       PRES   REMARKS
STOCKTON       CLEAR     96  42  15 W12       29.80R HX  92
MODESTO        CLEAR     98  44  15 NW8       29.79R HX  94
MERCED         CLEAR     95  50  21 NW8       29.79R HX  92
LEMOORE        CLEAR     99  53  21 NW14      29.79R HX  96
FRESNO         PTCLDY    98  53  22 NW15      29.79R HX  96
HANFORD        MOCLDY    99  54  22 NW12      29.79R HX  97
PORTERVILLE    CLEAR    100  55  22 W3        29.80R HX  98
BAKERSFIELD    CLEAR    103  35   9 N5        29.79R HAZE    HX  97
$$
CAZ011-012-071-280400-
NORTHERN MOUNTAINS

CITY           SKY/WX    TMP DP  RH WIND       PRES   REMARKS
YREKA          CLEAR     89  50  26 N13       29.98R
MOUNT SHASTA   CLEAR     82  52  35 CALM      30.03R
ALTURAS        CLEAR     88  19   8 W7        30.09R
$$
CAZ011-012-071-280400-
SIERRA NEVADA MTNS

CITY           SKY/WX    TMP DP  RH WIND       PRES   REMARKS
BLUE CANYON    CLEAR     80  38  22 CALM      30.22R
TRUCKEE        CLEAR     79  36  21 W6        30.25R
TAHOE VLY ARPT CLEAR     75  39  27 SW3       30.27R
MAMMOTH LAKES  LGT RAIN  77  36  22 W5G39     30.34S
$$




USA.gov is the U.S. government's official web portal to all federal, state and local government web resources and services.